Home > Weather > Traralgon > Past weeks

Flag for Australia Past Weather in Traralgon, Victoria, Australia — Yesterday and Last 2 Weeks

Now
58 °F

Refreshingly cool.


Feels Like: 58 °F
Forecast: 45 / 53 °F
Wind: 6 mph from South

Location: Latrobe Valley Airport

Current Time: Jun 30, 2016 at 3:04:33 PM

Latest Report: Jun 30, 2016 at 2:00 PM


Visibility: N/A

Pressure: 29.72 "Hg

Humidity: 48%

Dew Point: 39 °F

Location of TraralgonLocation

Past Weather in Traralgon — Graph

°F

Traralgon Temperature Yesterday

Maximum temperature yesterday: 60 °F (at 12:00 PM)
Minimum temperature yesterday: 40 °F (at 11:00 PM)
Average temperature yesterday: 49 °F

High & Low Weather Summary for the Past Weeks

 TemperatureHumidityPressure
High61 °F (Jun 23, 12:00 PM)98% (Jun 16, 9:00 AM)30.39 "Hg (Jun 16, 9:00 AM)
Low33 °F (Jun 27, 6:00 AM)43% (Jun 23, 3:00 PM)29.35 "Hg (Jun 22, 12:00 AM)
Average48 °F84%29.91 "Hg
* Reported Jun 15 2:00 PM — Jun 30 2:00 PM, Traralgon, Weather by CustomWeather, © 2016

Note: Actual official high and low records may vary slightly from our data, if they occured in-between our weather recording intervals... More about our weather records

Advertising

Traralgon Weather History for the Previous 24 Hours

Scroll right to see more
 ConditionsComfort  
Time TempWeatherWind HumidityBarometerVisibility
2:00 PM
Thu, Jun 30
58 °FRefreshingly cool.6 mph48%29.72 "HgN/A
12:00 PM54 °FOvercast.6 mph55%29.79 "HgN/A
11:00 AM52 °FCool.5 mph65%29.83 "HgN/A
9:00 AM42 °FOvercast.6 mph87%29.89 "HgN/A
8:00 AM40 °FChilly.5 mph94%29.91 "HgN/A
6:00 AM39 °FOvercast.3 mph96%29.94 "HgN/A
5:00 AM38 °FChilly.3 mph96%29.96 "HgN/A
3:00 AM37 °FOvercast.2 mph95%30.03 "HgN/A
2:00 AM37 °FChilly.3 mph95%30.04 "HgN/A
12:00 AM35 °FChilly.5 mph94%30.08 "Hg2 mi
11:00 PM
Wed, Jun 29
40 °FChilly.No wind95%30.09 "HgN/A
9:00 PM42 °FOvercast.No wind93%30.12 "HgN/A
8:00 PM43 °FQuite cool.1 mph91%30.15 "HgN/A
6:00 PM49 °FOvercast.No wind84%30.18 "HgN/A
5:00 PM52 °FCool.No wind72%30.19 "HgN/A
3:00 PM57 °FPartly sunny.10 mph59%30.22 "HgN/A
Weather by CustomWeather, © 2016

See weather overviewHow to use our weather pages